Tracking 22440 objects as of 27-Feb-2021
HD Live streaming from Space Station
objects crossing your sky now

CZ-2C R/B

Track CZ-2C R/B now!
10-day predictions


NORAD ID: 37731
Int'l Code: 2011-030B
Perigee: 611.7 km
Apogee: 695.0 km
Inclination: 97.6 °
Period: 97.6 minutes
Semi major axis: 7024 km
RCS: 8.527 m2 (large)
Launch date: July 6, 2011
Source: People's Republic of China (PRC)
Launch site: Jiuquan Satellite Launch Center, China (JSC)

Note: This is a ROCKET BODY
aabbcc
Your satellite tracking list
Your tracking list is empty




NASA's NSSDC Master Catalog

Two Line Element Set (TLE):
1 37731U 11030B   21057.83661497  .00000084  00000-0  19542-4 0  9992
2 37731  97.6475  65.1931 0059297 187.1582 225.2119 14.74676463518947
Source of the keplerian elements: AFSPC